Regional Weather Roundup
Issued by NWS

Home | Current Version | Previous Version | Text Only | Print | Product List | Glossary On
Versions: 1 2 3 4 5 6 7 8 9 10 11 12 13 14 15 16 17 18 19 20 21 22 23 24 25 26 27 28 29 30 31 32 33 34 35 36 37 38 39 40 41 42 43 44 45 46 47 48 49 50
000
ASUS44 KBMX 051410
RWRAL

ALABAMA REGIONAL WEATHER ROUNDUP
NATIONAL WEATHER SERVICE BIRMINGHAM AL
800 AM CST MON DEC 05 2016

NOTE: "FAIR" INDICATES FEW OR NO CLOUDS BELOW 12,000 FEET
WITH NO SIGNIFICANT WEATHER AND/OR OBSTRUCTIONS TO VISIBILITY.

THE REMARK "TC" DENOTES TEMPERATURE IN DEGREES CELSIUS.

ALZ001>011-014-016>018-020-051500-
NORTH ALABAMA

CITY           SKY/WX    TMP DP  RH WIND       PRES   REMARKS
MUSCLE SHOALS  CLOUDY    47  43  86 NE5       30.02S
HUNTSVILLE     DRIZZLE   50  48  93 NE9       30.00F FOG
DECATUR        CLOUDY    47  47 100 NE8       30.01F FOG
HALEYVILLE     LGT RAIN  47  46  97 NE5       30.00F VSB 3/4
GADSDEN        CLOUDY    47  46  97 NE6       30.02F
$$

ALZ012-013-022-023-030>036-040>044-051500-
WEST CENTRAL ALABAMA

CITY           SKY/WX    TMP DP  RH WIND       PRES   REMARKS
TUSCALOOSA     CLOUDY    52  51  97 NE8       29.96F
$$

ALZ015-024>027-033>036-040>044-051500-
CENTRAL ALABAMA

CITY           SKY/WX    TMP DP  RH WIND       PRES   REMARKS
BIRMINGHAM     CLOUDY    49  48  97 NE7       30.00S FOG
MONTGOMERY     CLOUDY    54  50  86 NE7       29.98R FOG
SHELBY CO ARPT CLOUDY    51  51 100 CALM      29.98R
MAXWELL AFB    LGT RAIN  52  52  99 NE6       29.97R FOG
GREENVILLE     NOT AVBL
$$

ALZ019-021-028-029-037-038-045>048-051500-
EAST CENTRAL ALABAMA

CITY           SKY/WX    TMP DP  RH WIND       PRES   REMARKS
ANNISTON       CLOUDY    49  46  90 E6        30.01R
ALEXANDER CITY CLOUDY    52  51  97 CALM      29.99R FOG
AUBURN         CLOUDY    48  48 100 NE6       30.00R FOG
$$

ALZ051>064-051500-
SOUTHWEST ALABAMA

CITY           SKY/WX    TMP DP  RH WIND       PRES   REMARKS
MOBILE         FOG       57  56  96 NE8       29.91S VSB 1/2
BROOKLEY FIELD CLOUDY    60  59  96 N7        29.92R FOG
EVERGREEN      CLOUDY    58  57  97 NE7       29.94S FOG
$$

ALZ049-050-065>069-051500-
SOUTHEAST ALABAMA

CITY           SKY/WX    TMP DP  RH WIND       PRES   REMARKS
DOTHAN         FOG       56  56 100 N8        29.98R VSB 1/2
OZARK          CLOUDY    57  57 100 NE8       29.94F FOG
TROY           CLOUDY    52  52 100 E8        29.96F FOG
EUFAULA        CLOUDY    52  51  97 NE5       29.98R FOG
$$



USA.gov is the U.S. government's official web portal to all federal, state and local government web resources and services.